User: anonymous   Login
Location: Buttermere
(51.3333°N, 1.5167°W)
Time: 19:35:26
(UTC+00:00)
Language:

Cosmos 2150 Rocket - Orbit

View from above orbital plane
View from above orbital plane
View from above satellite
View from above satellite

Ground track
Ground track

The orbit data is extracted from the following two-line orbital elements,

1 21419U 91041B   20333.51918732  .00000167  00000-0  68406-4 0  9991
2 21419  74.0378 154.1529 0040230 134.7051 225.7389 14.33974196541110
Epoch (UTC): 28 November 2020 12:27:37
Eccentricity: 0.0040230
inclination: 74.0378°
perigee height: 749 km
apogee height: 807 km
right ascension of ascending node: 154.1529°
argument of perigee: 134.7051°
revolutions per day: 14.33974196
mean anomaly at epoch: 225.7389°
orbit number at epoch: 54111

The dashed part of the orbit path shows where the satellite is in the earth's shadow,  

DLR